User: anonymous   Login
Location: Unspecified
(0.0000°N, 0.0000°E)
Time: 11:03:47
(UTC+00:00)
Language:

ISS - Orbit

View from above orbital plane
View from above orbital plane
View from above satellite
View from above satellite

Ground track
Ground track

The orbit data is extracted from the following two-line orbital elements,

1 25544U 98067A   19349.54156356  .00016717  00000-0  10270-3 0  9053
2 25544  51.6391 182.2292 0007334  34.6572 325.5055 15.50135080  3384
Epoch (UTC): 15 December 2019 12:59:51
Eccentricity: 0.0007334
inclination: 51.6391°
perigee height: 411 km
apogee height: 421 km
right ascension of ascending node: 182.2292°
argument of perigee: 34.6572°
revolutions per day: 15.50135080
mean anomaly at epoch: 325.5055°
orbit number at epoch: 338

The dashed part of the orbit path shows where the satellite is in the earth's shadow,  

DLR